Location: Austin
(30.3000°N, 97.7500°W)
Time: 12:27:59
(UTC-05:00)

MetOp-A - Pass Details

Date: 26 May 2023
Orbit: 529 x 802 km, 98.4° (Epoch: 30 May)

Event Time Altitude Azimuth Distance (km) Brightness Sun altitude
Exits shadow 22:35:08 59° 21° (NNE) 625 3.6 -23.8°
Drops below altitude 10° 22:38:29 10° 352° (N) 1,838 6.7 -24.3°
Sets 22:40:40 0° 351° (N) 2,768 7.8 -24.6°
